Flag for Canada Weather past 2 weeks in Richmond, British Columbia, Canada

Now
41 °F

Light rain. Mostly cloudy.


Feels Like: 39 °F
Forecast: 36 / 47 °F
Wind: 3 mph from Northwest

Location: Vancouver International Air-Port

Current Time: Mar 1, 2015 at 8:14:11 PM

Latest Report: Mar 1, 2015 at 7:00 PM


Visibility: 10 mi

Pressure: 30.04 "Hg

Humidity: 81%

Dew point: 36 °F

Location of RichmondLocation

Historic Weather in Richmond — Graph

°F

Richmond temperature yesterday

Maximum temperature yesterday: 50 °F (at 3:00 PM)
Minimum temperature yesterday: 30 °F (at 4:00 AM)
Average temperature yesterday: 41 °F

Past Weeks' High & Low Weather Summary

 TemperatureHumidityPressure
High54 °F (Feb 18, 12:00 PM)100% (Feb 15, 2:00 AM)30.50 "Hg (Feb 15, 2:00 AM)
Low30 °F (Feb 28, 4:00 AM)40% (Feb 28, 10:00 AM)29.78 "Hg (Feb 27, 7:00 AM)
Average43 °F86%30.28 "Hg
* Reported Feb 14 6:00 PM — Mar 1 6:00 PM, Richmond, Weather by CustomWeather, © 2015

Note: Actual official high and low records may vary slightly from our data, if they occured in-between our weather recording intervals... More about our weather records

Advertising

Richmond weather history for previous 24 hours

 ConditionsComfort  
Time TempWeatherWind HumidityBarometerVisibility
6:00 PM
Sun, Mar 1
41 °FLight rain. Mostly cloudy.5 mph76%30.05 "Hg12 mi
5:00 PM43 °FSprinkles. Mostly cloudy.13 mph81%30.07 "Hg15 mi
4:00 PM43 °FMostly cloudy.10 mph87%30.08 "Hg20 mi
3:00 PM45 °FMostly cloudy.6 mph81%30.09 "Hg20 mi
2:00 PM45 °FMostly cloudy.7 mph81%30.11 "Hg30 mi
1:00 PM46 °FMostly cloudy.3 mph71%30.14 "Hg30 mi
12:00 PM45 °FMostly cloudy.3 mph76%30.18 "Hg30 mi
11:00 AM45 °FMostly cloudy.5 mph71%30.20 "Hg30 mi
10:00 AM43 °FMostly cloudy.7 mph66%30.22 "Hg30 mi
9:00 AM41 °FPartly sunny.7 mph70%30.23 "Hg30 mi
8:00 AM36 °FPartly sunny.6 mph81%30.24 "Hg30 mi
7:00 AM34 °FPartly sunny.6 mph81%30.23 "Hg30 mi
6:00 AM34 °FPassing clouds.3 mph75%30.24 "Hg20 mi
5:00 AM34 °FPassing clouds.5 mph81%30.23 "Hg20 mi
4:00 AM34 °FClear.3 mph75%30.24 "Hg20 mi
3:00 AM36 °FClear.2 mph87%30.24 "Hg20 mi
2:00 AM36 °FPassing clouds.No wind70%30.24 "Hg20 mi
1:00 AM37 °FPassing clouds.2 mph70%30.24 "Hg20 mi
12:00 AM36 °FPassing clouds.No wind70%30.24 "Hg20 mi
11:00 PM
Sat, Feb 28
39 °FPassing clouds.7 mph61%30.23 "Hg20 mi
10:00 PM39 °FPassing clouds.3 mph61%30.23 "Hg20 mi
9:00 PM41 °FPassing clouds.6 mph49%30.22 "Hg20 mi
8:00 PM43 °FPassing clouds.5 mph42%30.21 "Hg20 mi
Weather by CustomWeather, © 2015

See weather overviewHow to use our weather pages